Weather History for Skagway, AK

Change the Weather History Date:

Saturday, January 5, 2013

  Actual Average Record
Temperature  
Mean Temperature 33 °F -  
Max Temperature 36 °F 27 °F 43 °F (1984)
Min Temperature 30 °F 20 °F -4 °F (1966)
Degree Days  
Heating Degree Days 32    
Moisture  
Dew Point 22 °F    
Average Humidity 62    
Maximum Humidity 88    
Minimum Humidity 54    
Precipitation  
Precipitation 0.01 in - - ()
Sea Level Pressure  
Sea Level Pressure 29.75 in    
Wind  
Wind Speed 13 mph (NE)    
Max Wind Speed 23 mph    
Max Gust Speed 36 mph    
Visibility 10 miles    
Events Snow    
Averages and records for this station are not official NWS values.
T = Trace of Precipitation, MM = Missing Value Source: NWS Daily Summary

Daily Weather History Graph

Daily Weather History Graph

Search for Another Location

Airport:

Trip Planner

Search our weather history database for the weather conditions in past years. The results will help you decide how hot, cold, wet, or windy it might be!

Date:

Astronomy

Jan. 05, 2013 Rise Set
Actual Time 8:55 AM AKST 3:18 PM AKST
Civil Twilight 8:01 AM AKST 4:12 PM AKST
Nautical Twilight 7:07 AM AKST 5:07 PM AKST
Astronomical Twilight 6:17 AM AKST 5:57 PM AKST
Moon 1:16 AM AKST (1/5) 11:00 AM AKST (1/5)
Length of Visible Light 8h 10m
Length of Day
6h 22m
Last Quarter, 42% of the Moon is Illuminated
Jan 5
Last Quarter
Jan 11
New
Jan 18
First Quarter
Jan 26
Full
Feb 3
Last Quarter

Hourly Weather History & Observations

Time (AKST) Temp. Windchill Dew Point Humidity Pressure Visibility Wind Dir Wind Speed Gust Speed Precip Events Conditions
12:53 AM 30.0 °F - 27.0 °F 88% 29.99 in 10.0 mi Calm Calm - N/A   Clear
1:53 AM 36.0 °F 27.1 °F 23.0 °F 59% 29.96 in 10.0 mi NE 13.8 mph 25.3 mph N/A   Overcast
3:53 AM 35.1 °F 24.1 °F 21.0 °F 57% 29.91 in 10.0 mi NE 19.6 mph 31.1 mph N/A   Mostly Cloudy
4:53 AM 35.1 °F 24.8 °F 21.0 °F 57% 29.88 in 10.0 mi NNE 17.3 mph 32.2 mph N/A   Overcast
5:53 AM 35.1 °F 24.5 °F 19.9 °F 54% 29.85 in 10.0 mi NE 18.4 mph 35.7 mph 0.01 in   Overcast
6:53 AM 35.1 °F 23.3 °F 19.9 °F 54% 29.83 in 10.0 mi NE 23.0 mph 33.4 mph N/A   Overcast
7:53 AM 34.0 °F 22.7 °F 19.9 °F 56% 29.82 in 10.0 mi NE 19.6 mph 33.4 mph N/A   Overcast
8:53 AM 34.0 °F 22.1 °F 19.9 °F 56% 29.81 in 10.0 mi NE 21.9 mph 35.7 mph N/A   Overcast
9:53 AM 35.1 °F 23.3 °F 19.9 °F 54% 29.79 in 10.0 mi NE 23.0 mph 31.1 mph N/A   Overcast
10:53 AM 34.0 °F 22.7 °F 19.9 °F 56% 29.78 in 10.0 mi NE 19.6 mph 26.5 mph N/A   Overcast
11:53 AM 35.1 °F 24.8 °F 19.9 °F 54% 29.75 in 10.0 mi NE 17.3 mph 24.2 mph N/A   Overcast
12:53 PM 35.1 °F 24.5 °F 19.9 °F 54% 29.72 in 10.0 mi NE 18.4 mph 25.3 mph N/A   Overcast
1:53 PM 35.1 °F 23.3 °F 19.9 °F 54% 29.69 in 10.0 mi NE 23.0 mph 27.6 mph N/A   Overcast
2:53 PM 35.1 °F 25.5 °F 19.9 °F 54% 29.67 in 10.0 mi NE 15.0 mph 27.6 mph N/A   Scattered Clouds
3:53 PM 35.1 °F 25.2 °F 19.9 °F 54% 29.67 in 10.0 mi NE 16.1 mph 25.3 mph N/A   Overcast
4:53 PM 34.0 °F 23.0 °F 19.9 °F 56% 29.66 in 10.0 mi NE 18.4 mph 24.2 mph N/A   Overcast
5:53 PM 34.0 °F 25.0 °F 21.0 °F 59% 29.66 in 10.0 mi NE 12.7 mph 26.5 mph N/A   Overcast
6:53 PM 34.0 °F 29.8 °F 21.9 °F 61% 29.66 in 10.0 mi NE 4.6 mph - N/A   Overcast
7:53 PM 34.0 °F 31.0 °F 21.9 °F 61% 29.65 in 10.0 mi North 3.5 mph 16.1 mph N/A   Overcast
8:53 PM 32.0 °F 25.6 °F 23.0 °F 69% 29.65 in 10.0 mi NE 6.9 mph - 0.00 in   Overcast
9:37 PM 32.0 °F 28.7 °F 24.8 °F 75% 29.65 in 10.0 mi NNE 3.5 mph - N/A   Overcast
9:53 PM 32.0 °F 28.7 °F 24.1 °F 73% 29.65 in 10.0 mi NE 3.5 mph - N/A   Overcast
10:53 PM 32.0 °F 27.5 °F 24.1 °F 73% 29.66 in 8.0 mi NE 4.6 mph - 0.00 in Snow Light Snow
11:04 PM 30.2 °F 26.7 °F 24.8 °F 80% 29.66 in 7.0 mi ENE 3.5 mph - 0.00 in Snow Light Snow
11:53 PM 30.9 °F 27.5 °F 27.0 °F 85% 29.66 in 5.0 mi NE 3.5 mph - 0.00 in Snow Light Snow